Saint Bonnet de Bellac- Haute Vienne - France
Donnes mto: jeudi, 12/04/2012
Date Horaire Temp. E. Hum. E. P.atmo. Pluie Vent Direction Direction Ensoleilleme Solaire P. de rose Temp au vent Rafales
12/04/2012 00:00 8,0 C 88 % 1003,4 hPa 0,0 mm 4,7 km/h (1 Bft) SO 225 0 min 0 W/m 6,1 C 7,6 C 9,0 km/h (2 Bft)
12/04/2012 00:10 7,9 C 89 % 1003,5 hPa 0,1 mm 2,9 km/h (1 Bft) O-SO 247 0 min 0 W/m 6,2 C 7,9 C 6,1 km/h (2 Bft)
12/04/2012 00:20 7,9 C 89 % 1003,5 hPa 0,0 mm 3,6 km/h (1 Bft) S-SO 202 0 min 0 W/m 6,2 C 7,9 C 8,3 km/h (2 Bft)
12/04/2012 00:30 7,8 C 90 % 1003,4 hPa 0,0 mm 3,6 km/h (1 Bft) SO 225 0 min 0 W/m 6,3 C 7,8 C 3,6 km/h (1 Bft)
12/04/2012 00:40 7,7 C 90 % 1003,4 hPa 0,0 mm 3,2 km/h (1 Bft) SO 225 0 min 0 W/m 6,2 C 7,7 C 7,2 km/h (2 Bft)
12/04/2012 00:50 7,6 C 90 % 1003,5 hPa 0,1 mm 2,2 km/h (1 Bft) S-SO 202 0 min 0 W/m 6,1 C 7,6 C 4,0 km/h (1 Bft)
12/04/2012 01:00 7,6 C 91 % 1003,4 hPa 0,0 mm 1,8 km/h (1 Bft) SO 225 0 min 0 W/m 6,2 C 7,6 C 4,3 km/h (1 Bft)
12/04/2012 01:10 7,6 C 91 % 1003,4 hPa 0,0 mm 2,5 km/h (1 Bft) S-SO 202 0 min 0 W/m 6,2 C 7,6 C 4,0 km/h (1 Bft)
12/04/2012 01:20 7,5 C 91 % 1003,5 hPa 0,1 mm 2,5 km/h (1 Bft) SO 225 0 min 0 W/m 6,1 C 7,5 C 4,3 km/h (1 Bft)
12/04/2012 01:30 7,5 C 92 % 1003,5 hPa 0,0 mm 1,4 km/h (1 Bft) SO 225 0 min 0 W/m 6,3 C 7,5 C 4,0 km/h (1 Bft)
12/04/2012 01:40 7,5 C 92 % 1003,6 hPa 0,0 mm 0,0 km/h (0 Bft) S-SO 202 0 min 0 W/m 6,3 C 7,5 C 0,0 km/h (0 Bft)
12/04/2012 01:50 7,4 C 92 % 1003,6 hPa 0,1 mm 1,1 km/h (1 Bft) SO 225 0 min 0 W/m 6,2 C 7,4 C 1,1 km/h (1 Bft)
12/04/2012 02:00 7,4 C 92 % 1003,5 hPa 0,0 mm 0,0 km/h (0 Bft) S-SO 202 0 min 0 W/m 6,2 C 7,4 C 0,0 km/h (0 Bft)
12/04/2012 02:10 7,4 C 92 % 1003,4 hPa 0,1 mm 0,0 km/h (0 Bft) S-SO 202 0 min 0 W/m 6,2 C 7,4 C 0,0 km/h (0 Bft)
12/04/2012 02:20 7,4 C 92 % 1003,2 hPa 0,0 mm 0,0 km/h (0 Bft) S-SO 202 0 min 0 W/m 6,2 C 7,4 C 0,0 km/h (0 Bft)
12/04/2012 02:30 7,4 C 92 % 1003,1 hPa 0,1 mm 0,4 km/h (0 Bft) S-SO 202 0 min 0 W/m 6,2 C 7,4 C 3,2 km/h (1 Bft)
12/04/2012 02:40 7,4 C 92 % 1003,0 hPa 0,0 mm 0,0 km/h (0 Bft) S-SO 202 0 min 0 W/m 6,2 C 7,4 C 0,0 km/h (0 Bft)
12/04/2012 02:50 7,4 C 92 % 1003,0 hPa 0,0 mm 0,0 km/h (0 Bft) S-SO 202 0 min 0 W/m 6,2 C 7,4 C 0,0 km/h (0 Bft)
12/04/2012 03:02 7,4 C 92 % 1003,0 hPa 0,0 mm 0,0 km/h (0 Bft) S-SO 202 0 min 0 W/m 6,2 C 7,4 C 0,0 km/h (0 Bft)
12/04/2012 03:10 7,4 C 92 % 1003,0 hPa 0,0 mm 1,1 km/h (1 Bft) S-SO 202 0 min 0 W/m 6,2 C 7,4 C 2,9 km/h (1 Bft)
12/04/2012 03:20 7,4 C 92 % 1003,0 hPa 0,1 mm 0,0 km/h (0 Bft) S-SO 202 0 min 0 W/m 6,2 C 7,4 C 0,0 km/h (0 Bft)
12/04/2012 03:30 7,3 C 92 % 1003,0 hPa 0,0 mm 0,0 km/h (0 Bft) S-SO 202 0 min 0 W/m 6,1 C 7,3 C 1,4 km/h (1 Bft)
12/04/2012 03:40 7,3 C 92 % 1003,0 hPa 0,1 mm 0,0 km/h (0 Bft) S-SO 202 0 min 0 W/m 6,1 C 7,3 C 0,0 km/h (0 Bft)
12/04/2012 03:50 7,3 C 92 % 1002,9 hPa 0,0 mm 0,0 km/h (0 Bft) S-SO 202 0 min 0 W/m 6,1 C 7,3 C 0,0 km/h (0 Bft)
12/04/2012 04:00 7,3 C 92 % 1003,0 hPa 0,0 mm 0,0 km/h (0 Bft) S-SO 202 0 min 0 W/m 6,1 C 7,3 C 0,0 km/h (0 Bft)
12/04/2012 04:10 7,3 C 92 % 1003,0 hPa 0,0 mm 0,0 km/h (0 Bft) S-SO 202 0 min 0 W/m 6,1 C 7,3 C 0,0 km/h (0 Bft)
12/04/2012 04:20 7,2 C 92 % 1002,9 hPa 0,0 mm 0,0 km/h (0 Bft) S-SO 202 0 min 0 W/m 6,0 C 7,2 C 0,0 km/h (0 Bft)
12/04/2012 04:30 7,1 C 92 % 1002,9 hPa 0,0 mm 0,0 km/h (0 Bft) S-SO 202 0 min 0 W/m 5,9 C 7,1 C 0,0 km/h (0 Bft)
12/04/2012 04:40 7,1 C 92 % 1002,8 hPa 0,0 mm 0,0 km/h (0 Bft) S-SO 202 0 min 0 W/m 5,9 C 7,1 C 0,0 km/h (0 Bft)
12/04/2012 04:50 7,1 C 92 % 1002,9 hPa 0,1 mm 0,0 km/h (0 Bft) S-SO 202 0 min 0 W/m 5,9 C 7,1 C 0,0 km/h (0 Bft)
12/04/2012 05:00 7,1 C 92 % 1002,7 hPa 0,0 mm 0,0 km/h (0 Bft) S-SO 202 0 min 0 W/m 5,9 C 7,1 C 0,0 km/h (0 Bft)
12/04/2012 05:10 6,9 C 92 % 1002,6 hPa 0,0 mm 0,0 km/h (0 Bft) S-SO 202 0 min 0 W/m 5,7 C 6,9 C 0,0 km/h (0 Bft)
12/04/2012 05:20 6,9 C 92 % 1002,5 hPa 0,0 mm 0,0 km/h (0 Bft) S-SO 202 0 min 0 W/m 5,7 C 6,9 C 0,0 km/h (0 Bft)
12/04/2012 05:30 6,9 C 92 % 1002,4 hPa 0,0 mm 0,0 km/h (0 Bft) S-SO 202 0 min 0 W/m 5,7 C 6,9 C 0,0 km/h (0 Bft)
12/04/2012 05:40 6,9 C 92 % 1002,4 hPa 0,0 mm 0,0 km/h (0 Bft) S-SO 202 0 min 0 W/m 5,7 C 6,9 C 0,0 km/h (0 Bft)
12/04/2012 05:50 6,8 C 92 % 1002,3 hPa 0,0 mm 0,0 km/h (0 Bft) S-SO 202 0 min 0 W/m 5,6 C 6,8 C 0,0 km/h (0 Bft)
12/04/2012 06:00 6,8 C 92 % 1002,2 hPa 0,0 mm 0,0 km/h (0 Bft) S-SO 202 0 min 0 W/m 5,6 C 6,8 C 0,0 km/h (0 Bft)
12/04/2012 06:10 6,8 C 92 % 1002,3 hPa 0,0 mm 0,0 km/h (0 Bft) S-SO 202 0 min 0 W/m 5,6 C 6,8 C 0,0 km/h (0 Bft)
12/04/2012 06:20 6,8 C 92 % 1002,3 hPa 0,0 mm 0,0 km/h (0 Bft) S-SO 202 0 min 0 W/m 5,6 C 6,8 C 0,0 km/h (0 Bft)
12/04/2012 06:30 6,7 C 92 % 1002,3 hPa 0,0 mm 0,0 km/h (0 Bft) S-SO 202 0 min 0 W/m 5,5 C 6,7 C 0,0 km/h (0 Bft)
12/04/2012 06:40 6,6 C 92 % 1002,3 hPa 0,0 mm 0,0 km/h (0 Bft) S-SO 202 0 min 0 W/m 5,4 C 6,6 C 0,0 km/h (0 Bft)
12/04/2012 06:50 6,6 C 92 % 1002,3 hPa 0,0 mm 0,0 km/h (0 Bft) S-SO 202 0 min 0 W/m 5,4 C 6,6 C 0,0 km/h (0 Bft)
12/04/2012 07:00 6,6 C 92 % 1002,3 hPa 0,0 mm 0,0 km/h (0 Bft) S-SO 202 0 min 0 W/m 5,4 C 6,6 C 0,0 km/h (0 Bft)
12/04/2012 07:10 6,5 C 92 % 1002,4 hPa 0,0 mm 0,0 km/h (0 Bft) S-SO 202 0 min 0 W/m 5,3 C 6,5 C 0,0 km/h (0 Bft)
12/04/2012 07:20 6,6 C 92 % 1002,3 hPa 0,0 mm 0,0 km/h (0 Bft) S-SO 202 0 min 0 W/m 5,4 C 6,6 C 0,0 km/h (0 Bft)
12/04/2012 07:30 6,6 C 92 % 1002,3 hPa 0,0 mm 0,0 km/h (0 Bft) S-SO 202 2 min 0 W/m 5,4 C 6,6 C 0,0 km/h (0 Bft)
12/04/2012 07:40 6,6 C 92 % 1002,4 hPa 0,0 mm 0,0 km/h (0 Bft) S-SO 202 2 min 0 W/m 5,4 C 6,6 C 0,0 km/h (0 Bft)
12/04/2012 07:50 6,7 C 92 % 1002,5 hPa 0,0 mm 0,0 km/h (0 Bft) S-SO 202 2 min 0 W/m 5,5 C 6,7 C 0,0 km/h (0 Bft)
12/04/2012 08:00 6,8 C 93 % 1002,7 hPa 0,0 mm 0,0 km/h (0 Bft) S-SO 202 2 min 0 W/m 5,7 C 6,8 C 0,0 km/h (0 Bft)
12/04/2012 08:10 6,8 C 93 % 1002,7 hPa 0,0 mm 0,0 km/h (0 Bft) S-SO 202 2 min 0 W/m 5,7 C 6,8 C 0,0 km/h (0 Bft)
12/04/2012 08:20 6,9 C 93 % 1002,6 hPa 0,0 mm 0,0 km/h (0 Bft) S-SO 202 2 min 0 W/m 5,8 C 6,9 C 0,0 km/h (0 Bft)
12/04/2012 08:30 7,1 C 93 % 1002,6 hPa 0,0 mm 0,0 km/h (0 Bft) S-SO 202 2 min 0 W/m 6,0 C 7,1 C 0,0 km/h (0 Bft)
12/04/2012 08:40 7,2 C 93 % 1002,8 hPa 0,0 mm 0,0 km/h (0 Bft) S-SO 202 2 min 0 W/m 6,1 C 7,2 C 2,9 km/h (1 Bft)
12/04/2012 08:50 7,3 C 93 % 1002,8 hPa 0,0 mm 0,0 km/h (0 Bft) N 360 2 min 0 W/m 6,2 C 7,3 C 0,0 km/h (0 Bft)
12/04/2012 09:00 7,4 C 93 % 1002,9 hPa 0,0 mm 0,0 km/h (0 Bft) N 360 2 min 0 W/m 6,3 C 7,4 C 0,0 km/h (0 Bft)
12/04/2012 09:10 7,5 C 93 % 1003,0 hPa 0,0 mm 1,1 km/h (1 Bft) N 360 2 min 0 W/m 6,4 C 7,5 C 4,3 km/h (1 Bft)
12/04/2012 09:20 7,6 C 93 % 1003,0 hPa 0,0 mm 0,7 km/h (0 Bft) N 360 2 min 0 W/m 6,5 C 7,6 C 4,3 km/h (1 Bft)
12/04/2012 09:30 7,8 C 93 % 1003,1 hPa 0,0 mm 0,0 km/h (0 Bft) N 360 2 min 0 W/m 6,7 C 7,8 C 2,9 km/h (1 Bft)
12/04/2012 09:40 7,9 C 93 % 1003,1 hPa 0,0 mm 1,1 km/h (1 Bft) N-NO 337 2 min 0 W/m 6,8 C 7,9 C 3,6 km/h (1 Bft)
12/04/2012 09:50 8,4 C 94 % 1003,2 hPa 0,0 mm 1,8 km/h (1 Bft) N-NO 337 2 min 0 W/m 7,5 C 8,4 C 3,2 km/h (1 Bft)
12/04/2012 10:00 8,8 C 93 % 1003,3 hPa 0,0 mm 0,4 km/h (0 Bft) NO 315 2 min 0 W/m 7,7 C 8,8 C 3,2 km/h (1 Bft)
12/04/2012 10:10 8,9 C 93 % 1003,4 hPa 0,0 mm 0,4 km/h (0 Bft) N 360 2 min 0 W/m 7,8 C 8,9 C 4,0 km/h (1 Bft)
12/04/2012 10:20 8,9 C 92 % 1003,6 hPa 0,0 mm 0,0 km/h (0 Bft) N-NO 337 2 min 0 W/m 7,7 C 8,9 C 2,9 km/h (1 Bft)
12/04/2012 10:30 8,9 C 91 % 1003,6 hPa 0,0 mm 1,4 km/h (1 Bft) N 360 2 min 0 W/m 7,5 C 8,9 C 6,1 km/h (2 Bft)
12/04/2012 10:40 9,5 C 90 % 1003,8 hPa 0,0 mm 1,4 km/h (1 Bft) NO 315 2 min 0 W/m 7,9 C 9,5 C 3,6 km/h (1 Bft)
12/04/2012 10:50 10,3 C 87 % 1003,8 hPa 0,0 mm 1,1 km/h (1 Bft) N-NE 22 2 min 0 W/m 8,2 C 10,3 C 3,6 km/h (1 Bft)
12/04/2012 11:00 11,1 C 83 % 1003,9 hPa 0,0 mm 0,4 km/h (0 Bft) N-NE 22 2 min 0 W/m 8,3 C 11,1 C 3,2 km/h (1 Bft)
12/04/2012 11:10 11,8 C 82 % 1003,9 hPa 0,0 mm 0,4 km/h (0 Bft) NO 315 2 min 0 W/m 8,8 C 11,8 C 4,0 km/h (1 Bft)
12/04/2012 11:20 12,1 C 78 % 1004,0 hPa 0,0 mm 4,0 km/h (1 Bft) N-NE 22 2 min 0 W/m 8,4 C 12,1 C 4,0 km/h (1 Bft)
12/04/2012 11:30 11,9 C 76 % 1004,0 hPa 0,0 mm 6,1 km/h (2 Bft) N 360 2 min 0 W/m 7,8 C 11,9 C 8,6 km/h (2 Bft)
12/04/2012 11:40 12,0 C 75 % 1004,0 hPa 0,0 mm 0,4 km/h (0 Bft) NE 45 2 min 0 W/m 7,7 C 12,0 C 2,9 km/h (1 Bft)
12/04/2012 11:50 12,5 C 73 % 1004,1 hPa 0,0 mm 5,0 km/h (1 Bft) N-NE 22 2 min 0 W/m 7,8 C 12,5 C 11,2 km/h (2 Bft)
12/04/2012 12:00 12,5 C 74 % 1004,2 hPa 0,0 mm 0,7 km/h (0 Bft) N-NO 337 2 min 0 W/m 8,0 C 12,5 C 3,2 km/h (1 Bft)
12/04/2012 12:10 13,3 C 71 % 1004,1 hPa 0,0 mm 4,7 km/h (1 Bft) N-NE 22 2 min 0 W/m 8,2 C 13,3 C 4,7 km/h (1 Bft)
12/04/2012 12:20 13,6 C 69 % 1004,2 hPa 0,0 mm 4,3 km/h (1 Bft) N-NO 337 2 min 0 W/m 8,0 C 13,6 C 7,2 km/h (2 Bft)
12/04/2012 12:30 13,5 C 67 % 1004,2 hPa 0,0 mm 4,3 km/h (1 Bft) N 360 2 min 0 W/m 7,5 C 13,5 C 4,3 km/h (1 Bft)
12/04/2012 12:40 13,6 C 65 % 1004,2 hPa 0,0 mm 4,3 km/h (1 Bft) NE 45 2 min 0 W/m 7,1 C 13,6 C 6,1 km/h (2 Bft)
12/04/2012 12:50 14,1 C 64 % 1004,2 hPa 0,0 mm 3,2 km/h (1 Bft) N-NE 22 2 min 0 W/m 7,4 C 14,1 C 4,3 km/h (1 Bft)
12/04/2012 13:00 13,8 C 63 % 1004,1 hPa 0,0 mm 1,1 km/h (1 Bft) NE 45 2 min 0 W/m 6,9 C 13,8 C 3,6 km/h (1 Bft)
12/04/2012 13:10 13,4 C 63 % 1004,1 hPa 0,0 mm 1,4 km/h (1 Bft) NO 315 2 min 0 W/m 6,5 C 13,4 C 6,1 km/h (2 Bft)
12/04/2012 13:20 13,4 C 64 % 1004,1 hPa 0,0 mm 6,8 km/h (2 Bft) N-NE 22 2 min 0 W/m 6,7 C 13,4 C 10,8 km/h (2 Bft)
12/04/2012 13:30 14,2 C 64 % 1004,1 hPa 0,0 mm 8,3 km/h (2 Bft) NE 45 2 min 0 W/m 7,5 C 14,2 C 13,7 km/h (3 Bft)
12/04/2012 13:40 14,2 C 60 % 1004,1 hPa 0,0 mm 7,6 km/h (2 Bft) N 360 2 min 0 W/m 6,5 C 14,2 C 11,5 km/h (2 Bft)
12/04/2012 13:50 13,8 C 62 % 1004,2 hPa 0,0 mm 3,6 km/h (1 Bft) N-NE 22 2 min 0 W/m 6,6 C 13,8 C 3,6 km/h (1 Bft)
12/04/2012 14:00 14,0 C 61 % 1004,2 hPa 0,0 mm 1,1 km/h (1 Bft) E 90 2 min 0 W/m 6,6 C 14,0 C 3,6 km/h (1 Bft)
12/04/2012 14:10 14,6 C 58 % 1004,2 hPa 0,0 mm 9,4 km/h (2 Bft) NO 315 2 min 0 W/m 6,4 C 14,6 C 11,2 km/h (2 Bft)
12/04/2012 14:20 14,5 C 56 % 1004,2 hPa 0,0 mm 2,9 km/h (1 Bft) N-NO 337 2 min 0 W/m 5,8 C 14,5 C 2,9 km/h (1 Bft)
12/04/2012 14:30 14,3 C 58 % 1004,1 hPa 0,0 mm 1,8 km/h (1 Bft) N-NO 337 2 min 0 W/m 6,2 C 14,3 C 14,0 km/h (3 Bft)
12/04/2012 14:40 14,3 C 56 % 1004,1 hPa 0,0 mm 3,2 km/h (1 Bft) N-NE 22 2 min 0 W/m 5,6 C 14,3 C 6,1 km/h (2 Bft)
12/04/2012 14:50 14,8 C 55 % 1004,1 hPa 0,0 mm 9,7 km/h (2 Bft) O-NO 292 2 min 0 W/m 5,8 C 14,8 C 12,6 km/h (3 Bft)
12/04/2012 15:00 14,9 C 54 % 1004,2 hPa 0,0 mm 11,5 km/h (2 Bft) NO 315 2 min 0 W/m 5,7 C 14,9 C 15,5 km/h (3 Bft)
12/04/2012 15:10 15,3 C 53 % 1004,1 hPa 0,0 mm 7,6 km/h (2 Bft) N-NE 22 2 min 0 W/m 5,8 C 15,3 C 9,7 km/h (2 Bft)
12/04/2012 15:20 15,3 C 52 % 1004,1 hPa 0,0 mm 0,7 km/h (0 Bft) N-NO 337 2 min 0 W/m 5,5 C 15,3 C 3,2 km/h (1 Bft)
12/04/2012 15:30 14,9 C 52 % 1004,1 hPa 0,0 mm 3,6 km/h (1 Bft) N 360 2 min 0 W/m 5,1 C 14,9 C 9,7 km/h (2 Bft)
12/04/2012 15:40 14,6 C 53 % 1004,0 hPa 0,0 mm 3,6 km/h (1 Bft) NO 315 2 min 0 W/m 5,1 C 14,6 C 8,3 km/h (2 Bft)
12/04/2012 15:50 14,5 C 52 % 1004,0 hPa 0,0 mm 2,9 km/h (1 Bft) N-NO 337 2 min 0 W/m 4,8 C 14,5 C 3,6 km/h (1 Bft)
12/04/2012 16:00 14,2 C 52 % 1003,9 hPa 0,0 mm 1,8 km/h (1 Bft) N-NE 22 2 min 0 W/m 4,5 C 14,2 C 4,3 km/h (1 Bft)
12/04/2012 16:10 14,2 C 53 % 1004,0 hPa 0,0 mm 6,8 km/h (2 Bft) NO 315 2 min 0 W/m 4,8 C 14,2 C 10,8 km/h (2 Bft)
12/04/2012 16:20 14,2 C 53 % 1004,0 hPa 0,0 mm 7,6 km/h (2 Bft) N-NE 22 2 min 0 W/m 4,8 C 14,2 C 15,1 km/h (3 Bft)
12/04/2012 16:30 13,9 C 52 % 1004,0 hPa 0,0 mm 5,4 km/h (2 Bft) N-NO 337 2 min 0 W/m 4,2 C 13,9 C 6,8 km/h (2 Bft)
12/04/2012 16:40 13,8 C 52 % 1004,0 hPa 0,0 mm 3,2 km/h (1 Bft) N 360 2 min 0 W/m 4,1 C 13,8 C 8,6 km/h (2 Bft)
12/04/2012 16:50 13,8 C 53 % 1003,9 hPa 0,0 mm 1,4 km/h (1 Bft) N-NO 337 2 min 0 W/m 4,4 C 13,8 C 4,3 km/h (1 Bft)
12/04/2012 17:00 13,8 C 54 % 1003,9 hPa 0,0 mm 0,4 km/h (0 Bft) N-NO 337 2 min 0 W/m 4,7 C 13,8 C 0,4 km/h (0 Bft)
12/04/2012 17:10 13,6 C 53 % 1003,8 hPa 0,0 mm 0,0 km/h (0 Bft) N-NE 22 2 min 0 W/m 4,2 C 13,6 C 0,0 km/h (0 Bft)
12/04/2012 17:20 13,6 C 54 % 1003,9 hPa 0,0 mm 6,8 km/h (2 Bft) NO 315 2 min 0 W/m 4,5 C 13,6 C 11,9 km/h (2 Bft)
12/04/2012 17:30 13,6 C 53 % 1003,9 hPa 0,0 mm 3,6 km/h (1 Bft) N-NE 22 2 min 0 W/m 4,2 C 13,6 C 6,5 km/h (2 Bft)
12/04/2012 17:40 13,7 C 53 % 1003,8 hPa 0,0 mm 2,9 km/h (1 Bft) N-NE 22 2 min 0 W/m 4,3 C 13,7 C 3,2 km/h (1 Bft)
12/04/2012 17:50 13,8 C 52 % 1003,9 hPa 0,0 mm 5,4 km/h (2 Bft) N-NE 22 2 min 0 W/m 4,1 C 13,8 C 10,4 km/h (2 Bft)
12/04/2012 18:00 13,6 C 51 % 1003,8 hPa 0,0 mm 0,0 km/h (0 Bft) O-NO 292 2 min 0 W/m 3,7 C 13,6 C 0,0 km/h (0 Bft)
12/04/2012 18:10 13,6 C 51 % 1003,9 hPa 0,0 mm 3,6 km/h (1 Bft) NE 45 2 min 0 W/m 3,7 C 13,6 C 7,6 km/h (2 Bft)
12/04/2012 18:20 13,8 C 52 % 1003,8 hPa 0,0 mm 3,2 km/h (1 Bft) N-NO 337 2 min 0 W/m 4,1 C 13,8 C 3,2 km/h (1 Bft)
12/04/2012 18:30 13,9 C 51 % 1003,8 hPa 0,0 mm 2,9 km/h (1 Bft) N-NE 22 2 min 0 W/m 3,9 C 13,9 C 4,7 km/h (1 Bft)
12/04/2012 18:40 13,8 C 52 % 1003,8 hPa 0,0 mm 0,4 km/h (0 Bft) NE 45 2 min 0 W/m 4,1 C 13,8 C 0,4 km/h (0 Bft)
12/04/2012 18:50 13,6 C 53 % 1003,8 hPa 0,0 mm 1,1 km/h (1 Bft) NE 45 2 min 0 W/m 4,2 C 13,6 C 3,6 km/h (1 Bft)
12/04/2012 19:00 13,6 C 51 % 1003,8 hPa 0,0 mm 0,0 km/h (0 Bft) N-NO 337 2 min 0 W/m 3,7 C 13,6 C 0,0 km/h (0 Bft)
12/04/2012 19:10 13,8 C 52 % 1004,0 hPa 0,0 mm 0,0 km/h (0 Bft) N-NE 22 2 min 0 W/m 4,1 C 13,8 C 0,0 km/h (0 Bft)
12/04/2012 19:20 13,5 C 53 % 1004,1 hPa 0,0 mm 0,4 km/h (0 Bft) N-NE 22 2 min 0 W/m 4,1 C 13,5 C 3,6 km/h (1 Bft)
12/04/2012 19:30 13,1 C 53 % 1004,0 hPa 0,0 mm 0,0 km/h (0 Bft) N-NO 337 2 min 0 W/m 3,7 C 13,1 C 0,0 km/h (0 Bft)
12/04/2012 19:40 12,7 C 54 % 1004,1 hPa 0,0 mm 0,0 km/h (0 Bft) N-NO 337 2 min 0 W/m 3,6 C 12,7 C 0,0 km/h (0 Bft)
12/04/2012 19:50 12,4 C 55 % 1004,1 hPa 0,0 mm 0,0 km/h (0 Bft) N-NO 337 2 min 0 W/m 3,6 C 12,4 C 0,0 km/h (0 Bft)
12/04/2012 20:00 12,2 C 55 % 1004,1 hPa 0,0 mm 0,0 km/h (0 Bft) N-NO 337 2 min 0 W/m 3,4 C 12,2 C 0,0 km/h (0 Bft)
12/04/2012 20:10 11,9 C 56 % 1004,1 hPa 0,0 mm 0,0 km/h (0 Bft) N-NO 337 2 min 0 W/m 3,4 C 11,9 C 0,0 km/h (0 Bft)
12/04/2012 20:20 11,8 C 57 % 1004,2 hPa 0,0 mm 0,0 km/h (0 Bft) N-NO 337 2 min 0 W/m 3,6 C 11,8 C 0,0 km/h (0 Bft)
12/04/2012 20:30 11,5 C 58 % 1004,2 hPa 0,0 mm 0,0 km/h (0 Bft) N-NO 337 0 min 0 W/m 3,5 C 11,5 C 0,0 km/h (0 Bft)
12/04/2012 20:40 11,1 C 58 % 1004,2 hPa 0,0 mm 0,0 km/h (0 Bft) N-NO 337 0 min 0 W/m 3,2 C 11,1 C 0,0 km/h (0 Bft)
12/04/2012 20:50 10,6 C 59 % 1004,1 hPa 0,0 mm 0,0 km/h (0 Bft) N-NO 337 0 min 0 W/m 2,9 C 10,6 C 0,0 km/h (0 Bft)
12/04/2012 21:00 10,1 C 60 % 1004,2 hPa 0,0 mm 0,0 km/h (0 Bft) N-NO 337 0 min 0 W/m 2,7 C 10,1 C 0,0 km/h (0 Bft)
12/04/2012 21:10 9,5 C 60 % 1004,3 hPa 0,0 mm 0,0 km/h (0 Bft) N-NO 337 0 min 0 W/m 2,1 C 9,5 C 0,0 km/h (0 Bft)
12/04/2012 21:20 8,9 C 62 % 1004,4 hPa 0,0 mm 0,0 km/h (0 Bft) N-NO 337 0 min 0 W/m 2,0 C 8,9 C 0,0 km/h (0 Bft)
12/04/2012 21:30 8,3 C 63 % 1004,5 hPa 0,0 mm 0,0 km/h (0 Bft) N-NO 337 0 min 0 W/m 1,7 C 8,3 C 0,0 km/h (0 Bft)
12/04/2012 21:40 7,8 C 64 % 1004,6 hPa 0,0 mm 0,0 km/h (0 Bft) N-NO 337 0 min 0 W/m 1,4 C 7,8 C 0,0 km/h (0 Bft)
12/04/2012 21:50 7,4 C 66 % 1004,7 hPa 0,0 mm 0,0 km/h (0 Bft) N-NO 337 0 min 0 W/m 1,5 C 7,4 C 0,0 km/h (0 Bft)
12/04/2012 22:00 7,1 C 67 % 1004,8 hPa 0,0 mm 0,0 km/h (0 Bft) N-NO 337 0 min 0 W/m 1,4 C 7,1 C 0,0 km/h (0 Bft)
12/04/2012 22:10 6,9 C 68 % 1004,9 hPa 0,0 mm 0,0 km/h (0 Bft) N-NO 337 0 min 0 W/m 1,4 C 6,9 C 0,0 km/h (0 Bft)
12/04/2012 22:20 6,6 C 68 % 1004,9 hPa 0,0 mm 0,0 km/h (0 Bft) N-NO 337 0 min 0 W/m 1,1 C 6,6 C 0,0 km/h (0 Bft)
12/04/2012 22:30 6,3 C 69 % 1004,9 hPa 0,0 mm 0,0 km/h (0 Bft) N-NO 337 0 min 0 W/m 1,0 C 6,3 C 0,0 km/h (0 Bft)
12/04/2012 22:40 6,0 C 70 % 1004,9 hPa 0,0 mm 0,0 km/h (0 Bft) N-NO 337 0 min 0 W/m 1,0 C 6,0 C 0,0 km/h (0 Bft)
12/04/2012 22:50 5,8 C 70 % 1004,9 hPa 0,0 mm 0,0 km/h (0 Bft) N-NO 337 0 min 0 W/m 0,8 C 5,8 C 0,0 km/h (0 Bft)
12/04/2012 23:00 5,6 C 72 % 1004,8 hPa 0,0 mm 0,0 km/h (0 Bft) N-NO 337 0 min 0 W/m 1,0 C 5,6 C 0,0 km/h (0 Bft)
12/04/2012 23:10 5,5 C 72 % 1004,9 hPa 0,0 mm 0,0 km/h (0 Bft) N-NO 337 0 min 0 W/m 0,9 C 5,5 C 0,0 km/h (0 Bft)
12/04/2012 23:20 5,4 C 73 % 1004,9 hPa 0,0 mm 0,0 km/h (0 Bft) N-NO 337 0 min 0 W/m 1,0 C 5,4 C 0,0 km/h (0 Bft)
12/04/2012 23:30 5,3 C 73 % 1005,0 hPa 0,0 mm 0,0 km/h (0 Bft) N-NO 337 0 min 0 W/m 0,9 C 5,3 C 0,0 km/h (0 Bft)
12/04/2012 23:40 5,3 C 75 % 1005,1 hPa 0,0 mm 0,7 km/h (0 Bft) O-SO 247 0 min 0 W/m 1,2 C 5,3 C 3,6 km/h (1 Bft)
12/04/2012 23:50 5,1 C 77 % 1005,2 hPa 0,0 mm 0,0 km/h (0 Bft) O-SO 247 0 min 0 W/m 1,4 C 5,1 C 0,0 km/h (0 Bft)
_ Min-Heure 23:50 19:00 06:00 - 23:50 - - - - 22:50 23:50 23:50
Minimum _ 5,1 C 51 % 1002,2 hPa - 0,0 km/h (0 Bft) - - - - 0,8 C 5,1 C 0,0 km/h (0 Bft)
_ Max-Heure 15:20 09:50 23:50 04:50 15:00 - - 20:20 23:50 11:10 15:20 15:00
Maximum _ 15,3 C 94 % 1005,2 hPa 0,1 mm 11,5 km/h
NO (2 Bft)
- - 2 min 0 W/m 8,8 C 15,3 C 15,5 km/h
NO (3 Bft)
Moyenne _ 9,9 C 75 % 1003,6 hPa #0,9 mm 1,5 km/h (1 Bft) S-SO - #2:36 h 0 W/m 5,2 C 9,9 C 3,0 km/h (1 Bft)
Saint Bonnet de Bellac- Haute Vienne - France